Weather History for KELN - May, 2013

Change the Weather History Date:

Monday, May 13, 2013

  Actual Average (KYKM) Record (KYKM)
Temperature  
Mean Temperature 59 °F 56 °F  
Max Temperature 75 °F 72 °F 96 °F (1949)
Min Temperature 43 °F 41 °F 28 °F (1964)
Degree Days  
Heating Degree Days 6 9  
Month to date heating degree days 139  
Since 1 July heating degree days 5821  
Cooling Degree Days 0 1  
Month to date cooling degree days 2  
Year to date cooling degree days 3  
Growing Degree Days 9 (Base 50)    
Moisture  
Dew Point 42 °F    
Average Humidity 55    
Maximum Humidity 70    
Minimum Humidity 27    
Precipitation  
Precipitation 0.00 in 0.02 in 0.57 in (1996)
Month to date precipitation 0.23  
Year to date precipitation 3.32  
Snow  
Snow 0.00 in 0.00 in 0.00 in (2002)
Month to date snowfall 0.0  
Year to date snowfall 8.6  
Since 1 July snowfall 21.6  
Snow Depth -    
Sea Level Pressure  
Sea Level Pressure 29.99 in    
Wind  
Wind Speed 14 mph (WNW)    
Max Wind Speed 30 mph    
Max Gust Speed 38 mph    
Visibility 10 miles    
Events Rain    
T = Trace of Precipitation, MM = Missing Value Source: NWS Daily Summary

Daily Weather History Graph

Daily Weather History Graph

Search for Another Location

Airport or City:

Trip Planner

Search our weather history database for the weather conditions in past years. The results will help you decide how hot, cold, wet, or windy it might be!

Date:

Astronomy

May. 13, 2013 Rise Set
Actual Time 5:28 AM PDT 8:29 PM PDT
Civil Twilight 4:52 AM PDT 9:04 PM PDT
Nautical Twilight 4:06 AM PDT 9:51 PM PDT
Astronomical Twilight 3:11 AM PDT 10:47 PM PDT
Moon 8:17 AM PDT (5/13) 11:41 PM PDT (5/13)
Length of Visible Light 16h 12m
Length of Day
15h 00m
Waxing Crescent, 13% of the Moon is Illuminated
May 13
Waxing Crescent
May 17
First Quarter
May 24
Full
May 31
Last Quarter
Jun 8
New

Hourly Weather History & Observations

Time (PDT) Temp. Windchill Dew Point Humidity Pressure Visibility Wind Dir Wind Speed Gust Speed Precip Events Conditions
12:53 AM 60.1 °F - 46.9 °F 62% 29.97 in 10.0 mi NW 13.8 mph - N/A   Partly Cloudy
1:53 AM 60.1 °F - 48.0 °F 64% 29.97 in 10.0 mi WNW 6.9 mph - N/A   Mostly Cloudy
2:53 AM 59.0 °F - 48.0 °F 67% 29.96 in 10.0 mi NW 11.5 mph - N/A   Overcast
3:53 AM 57.9 °F - 48.0 °F 70% 29.97 in 10.0 mi NW 9.2 mph - N/A   Overcast
4:53 AM 57.9 °F - 46.9 °F 67% 29.97 in 10.0 mi NW 8.1 mph - N/A   Scattered Clouds
5:53 AM 57.0 °F - 46.9 °F 69% 29.98 in 10.0 mi NW 10.4 mph - N/A   Partly Cloudy
6:53 AM 59.0 °F - 48.0 °F 67% 29.97 in 10.0 mi WNW 10.4 mph - N/A   Partly Cloudy
7:53 AM 63.0 °F - 48.0 °F 58% 29.97 in 10.0 mi NW 13.8 mph - N/A   Clear
8:53 AM 63.0 °F - 46.9 °F 56% 29.97 in 10.0 mi NW 8.1 mph - N/A   Overcast
9:53 AM 62.1 °F - 45.0 °F 53% 29.97 in 10.0 mi WNW 17.3 mph 20.7 mph N/A   Mostly Cloudy
10:53 AM 64.0 °F - 39.0 °F 40% 29.97 in 10.0 mi SW 15.0 mph 33.4 mph 0.00 in Rain Light Rain
11:00 AM 64.4 °F - 37.4 °F 37% 29.99 in 10.0 mi SSW 15.0 mph 25.3 mph 0.00 in Rain Light Rain
11:53 AM 64.9 °F - 41.0 °F 42% 29.96 in 10.0 mi WSW 6.9 mph - 0.00 in   Overcast
1:53 PM 66.9 °F - 39.9 °F 37% 29.91 in 10.0 mi SSW 9.2 mph - N/A   Overcast
2:53 PM 73.9 °F - 37.9 °F 27% 29.88 in 10.0 mi WSW 25.3 mph 31.1 mph N/A   Mostly Cloudy
3:53 PM 66.0 °F - 37.9 °F 36% 29.92 in 10.0 mi WNW 25.3 mph 34.5 mph N/A   Overcast
5:53 PM 60.1 °F - 42.1 °F 51% 29.95 in 10.0 mi WNW 24.2 mph 32.2 mph N/A   Partly Cloudy
6:53 PM 55.0 °F - 39.9 °F 57% 29.99 in 10.0 mi NW 29.9 mph 38.0 mph N/A   Mostly Cloudy
7:53 PM 51.1 °F - 37.0 °F 59% 30.04 in 10.0 mi NW 28.8 mph 38.0 mph 0.00 in   Mostly Cloudy
8:53 PM 50.0 °F - 34.0 °F 54% 30.07 in 10.0 mi NW 20.7 mph 28.8 mph N/A   Clear
9:53 PM 46.9 °F - 32.0 °F 56% 30.11 in 10.0 mi NW 15.0 mph - N/A   Clear
10:53 PM 45.0 °F 38.2 °F 32.0 °F 60% 30.12 in 10.0 mi NW 15.0 mph - N/A   Clear
11:53 PM 43.0 °F 38.8 °F 32.0 °F 65% 30.14 in 10.0 mi West 6.9 mph - N/A   Clear